Location: Biharia
(46.4333°N, 22.8000°E)
Time: 20:43:03
(UTC+00:00)

Okean 2 Rocket - Pass Details

Date: 16 October 2021
Orbit: 617 x 641 km, 82.5° (Epoch: 29 November)

Event Time Altitude Azimuth Distance (km) Brightness Sun altitude
Rises 16:15:37 0° 200° (SSW) 2,893 6.9 -6.8°
Reaches altitude 10° 16:17:53 10° 205° (SSW) 1,995 6.1 -7.2°
Maximum altitude 16:22:12 53° 282° (WNW) 775 4.0 -8.0°
Drops below altitude 10° 16:26:36 10° 0° (N) 2,026 5.7 -8.7°
Sets 16:28:55 0° 5° (N) 2,943 6.4 -9.1°
